Weather observations for the past three days for
Mount Pleasant, Mount Pleasant Regional Airport
| Date | Time (cdt) | Wind (mph) | Vis. (mi.) | Weather | Sky Cond. | Temperature (ºF) | Relative Humidity | Wind Chill (°F) | Heat Index (°F) | Pressure | Precipitation (in) | ||||||
|---|---|---|---|---|---|---|---|---|---|---|---|---|---|---|---|---|---|
| Air | Dwpt | 6 hour | altimeter (in) | sea level (mb) | 1 hr | 3 hr | 6 hr | ||||||||||
| Max. | Min. | ||||||||||||||||
| 01 | 12:30 | E 6 | 10.00 | Mostly Cloudy | SCT060 BKN075 | 96.4 | 69.3 | 41% | 103 | 30.03 | 0.0 | ||||||
| 01 | 12:10 | E 7 | 10.00 | Partly Cloudy | SCT060 SCT075 SCT100 | 93.2 | 68.4 | 44% | 98 | 30.04 | 0.0 | ||||||
| 01 | 11:50 | SE 7 | 10.00 | Mostly Cloudy | BKN060 BKN070 | 94.1 | 69.3 | 44% | 100 | 30.05 | 0.0 | ||||||
| 01 | 11:30 | E 3 | 10.00 | Fair | CLR | 93 | 70.5 | 48% | 100 | 30.05 | 0.0 | ||||||
| 01 | 11:10 | S 5 | 10.00 | Fair | CLR | 92.1 | 70.9 | 50% | 99 | 30.06 | 0.0 | ||||||
| 01 | 10:50 | SE 3 | 10.00 | Fair | CLR | 91.9 | 71.2 | 51% | 99 | 30.06 | 0.0 | ||||||
| 01 | 10:30 | NW 3 | 10.00 | Fair | CLR | 90.7 | 71.1 | 53% | 97 | 30.06 | 0.0 | ||||||
| 01 | 10:10 | SW 3 | 10.00 | Fair | CLR | 90 | 72 | 56% | 97 | 30.06 | 0.0 | ||||||
| 01 | 09:50 | W 5 | 10.00 | Fair | CLR | 88.5 | 72 | 58% | 95 | 30.07 | 0.0 | ||||||
| 01 | 09:30 | W 3 | 10.00 | Fair | CLR | 86.5 | 71.6 | 61% | 93 | 30.07 | 0.0 | ||||||
| 01 | 09:10 | Calm | 10.00 | Fair | CLR | 84.7 | 71.4 | 64% | 90 | 30.06 | 0.0 | ||||||
| 01 | 08:50 | S 3 | 10.00 | Fair | CLR | 82.9 | 70.9 | 67% | 87 | 30.07 | 0.0 | ||||||
| 01 | 08:30 | SE 3 | 10.00 | Fair | CLR | 81 | 70.5 | 71% | 85 | 30.07 | 0.0 | ||||||
| 01 | 08:10 | Calm | 10.00 | Fair | CLR | 78.8 | 70.3 | 75% | 81 | 30.06 | 0.0 | ||||||
| 01 | 07:50 | Calm | 10.00 | Fair | CLR | 76.3 | 70.3 | 82% | 77 | 30.06 | 0.0 | ||||||
| 01 | 07:30 | Calm | 10.00 | Fair | CLR | 73.2 | 69.4 | 88% | 30.05 | 0.0 | |||||||
| 01 | 07:10 | SE 3 | 10.00 | Fair | CLR | 71.6 | 69.3 | 92% | 30.05 | 0.0 | |||||||
| 01 | 06:50 | Calm | 10.00 | Fair | CLR | 71.6 | 69.1 | 79.7 | 71.4 | 92% | 30.04 | 0.0 | |||||
| 01 | 06:30 | Calm | 10.00 | Fair | CLR | 72.9 | 69.3 | 89% | 30.03 | 0.0 | |||||||
| 01 | 06:10 | Calm | 10.00 | Fair | CLR | 72.9 | 69.4 | 89% | 30.03 | 0.0 | |||||||
| 01 | 05:50 | Calm | 10.00 | Fair | CLR | 73 | 68.7 | 86% | 30.03 | 0.0 | |||||||
| 01 | 05:30 | Calm | 10.00 | Fair | CLR | 76.1 | 68.7 | 78% | 77 | 30.02 | 0.0 | ||||||
| 01 | 05:10 | Calm | 10.00 | Fair | CLR | 75.2 | 68.4 | 79% | 76 | 30.02 | 0.0 | ||||||
| 01 | 04:50 | Calm | 10.00 | Fair | CLR | 77.7 | 68.7 | 74% | 80 | 30.03 | 0.0 | ||||||
| 01 | 04:30 | Calm | 10.00 | Fair | CLR | 77 | 68.5 | 75% | 79 | 30.02 | 0.0 | ||||||
| 01 | 04:10 | Calm | 10.00 | Fair | CLR | 76.3 | 68.5 | 77% | 78 | 30.03 | 0.0 | ||||||
| 01 | 03:50 | Calm | 10.00 | Fair | CLR | 74.7 | 68.4 | 81% | 30.03 | 0.0 | |||||||
| 01 | 03:30 | SE 5 | 10.00 | Fair | CLR | 75.7 | 68.7 | 79% | 77 | 30.03 | 0.0 | ||||||
| 01 | 03:10 | SE 3 | 10.00 | Fair | CLR | 76.8 | 68.4 | 75% | 78 | 30.02 | 0.0 | ||||||
| 01 | 02:50 | Calm | 10.00 | Fair | CLR | 76.3 | 68.7 | 78% | 78 | 30.02 | 0.0 | ||||||
| 01 | 02:30 | E 3 | 10.00 | Fair | CLR | 76.6 | 68.9 | 77% | 78 | 30.02 | 0.0 | ||||||
| 01 | 02:10 | SE 3 | 10.00 | Fair | CLR | 77.7 | 68.4 | 73% | 80 | 30.02 | 0.0 | ||||||
| 01 | 01:50 | Calm | 10.00 | Fair | CLR | 77.4 | 68 | 73% | 79 | 30.02 | 0.0 | ||||||
| 01 | 01:30 | SE 5 | 10.00 | Fair | CLR | 79.5 | 68 | 68% | 82 | 30.01 | 0.0 | ||||||
| 01 | 01:10 | SE 3 | 10.00 | Fair | CLR | 79.3 | 68 | 68% | 82 | 30.01 | 0.0 | ||||||
| 01 | 00:50 | SE 5 | 10.00 | Fair | CLR | 79.7 | 67.8 | 95.4 | 79.3 | 67% | 82 | 30.01 | 0.0 | ||||
| 01 | 00:30 | SE 5 | 10.00 | Fair | CLR | 79.7 | 67.6 | 67% | 82 | 30 | 0.0 | ||||||
| 01 | 00:10 | SE 5 | 10.00 | Fair | CLR | 80.8 | 67.5 | 64% | 83 | 30 | 0.0 | ||||||
| 31 | 23:50 | SE 5 | 10.00 | Fair | CLR | 80.4 | 67.5 | 65% | 83 | 29.99 | 0.0 | ||||||
| 31 | 23:30 | SE 6 | 10.00 | Fair | CLR | 80.6 | 67.3 | 64% | 83 | 29.99 | 0.0 | ||||||
| 31 | 23:10 | SE 6 | 10.00 | Fair | CLR | 81.3 | 66.9 | 62% | 84 | 29.99 | 0.0 | ||||||
| 31 | 22:50 | SE 6 | 10.00 | Fair | CLR | 80.8 | 66.6 | 62% | 83 | 29.99 | 0.0 | ||||||
| 31 | 22:30 | SE 6 | 10.00 | Fair | CLR | 81.3 | 66.6 | 61% | 84 | 29.99 | 0.0 | ||||||
| 31 | 22:10 | SE 6 | 10.00 | Fair | CLR | 82 | 66.4 | 59% | 84 | 29.99 | 0.0 | ||||||
| 31 | 21:50 | SE 6 | 10.00 | Fair | CLR | 84.4 | 66.4 | 55% | 87 | 29.98 | 0.0 | ||||||
| 31 | 21:30 | SE 7 | 10.00 | Fair | CLR | 85.5 | 65.8 | 52% | 88 | 29.98 | 0.0 | ||||||
| 31 | 21:10 | SE 6 | 10.00 | Fair | CLR | 86.5 | 65.3 | 49% | 88 | 29.97 | 0.0 | ||||||
| 31 | 20:50 | SE 6 | 10.00 | Fair | CLR | 86.9 | 65.1 | 48% | 89 | 29.97 | 0.0 | ||||||
| 31 | 20:30 | SE 6 | 10.00 | Fair | CLR | 87.4 | 65.1 | 48% | 89 | 29.96 | 0.0 | ||||||
| 31 | 20:10 | SE 6 | 10.00 | Fair | CLR | 88.7 | 64.6 | 45% | 90 | 29.96 | 0.0 | ||||||
| 31 | 19:50 | E 7 | 10.00 | Fair | CLR | 90.7 | 63.9 | 41% | 92 | 29.96 | 0.0 | ||||||
| 31 | 19:30 | E 6 | 10.00 | Fair | CLR | 91.8 | 63.9 | 40% | 93 | 29.96 | 0.0 | ||||||
| 31 | 19:10 | SE 7 | 10.00 | Fair | CLR | 93.9 | 63.9 | 37% | 96 | 29.95 | 0.0 | ||||||
| 31 | 18:30 | E 8 | 10.00 | Fair | CLR | 96.6 | 63.5 | 34% | 99 | 29.95 | 0.0 | ||||||
| 31 | 18:10 | E 8 | 10.00 | Fair | CLR | 97.3 | 63.3 | 33% | 99 | 29.95 | 0.0 | ||||||
| 31 | 17:50 | E 6 | 10.00 | Fair | CLR | 98.1 | 63.7 | 32% | 100 | 29.95 | 0.0 | ||||||
| 31 | 17:30 | E 10 | 10.00 | Partly Cloudy | SCT080 | 98.2 | 64.4 | 33% | 101 | 29.95 | 0.0 | ||||||
| 31 | 17:10 | SE 5 | 10.00 | Partly Cloudy | SCT080 | 96.4 | 65.1 | 36% | 99 | 29.95 | 0.0 | ||||||
| 31 | 16:50 | SE 10 | 10.00 | Fair | CLR | 96.1 | 64.6 | 35% | 99 | 29.96 | 0.0 | ||||||
| 31 | 16:30 | E 14 G 20 | 10.00 | Partly Cloudy | SCT080 | 99.3 | 64.8 | 32% | 102 | 29.96 | 0.0 | ||||||
| 31 | 16:10 | SE 9 | 10.00 | Partly Cloudy | SCT080 | 99.9 | 63.9 | 31% | 103 | 29.96 | 0.0 | ||||||
| 31 | 15:50 | SE 7 | 10.00 | Partly Cloudy | SCT080 SCT110 | 98.8 | 64.2 | 32% | 101 | 29.97 | 0.0 | ||||||
| 31 | 15:30 | E 13 | 10.00 | Mostly Cloudy | SCT080 BKN110 | 98.1 | 64.2 | 33% | 101 | 29.98 | 0.0 | ||||||
| 31 | 15:10 | E 5 | 10.00 | Mostly Cloudy | BKN080 BKN120 | 97.7 | 63.1 | 32% | 100 | 29.99 | 0.0 | ||||||
| 31 | 14:50 | SE 8 | 10.00 | Partly Cloudy | SCT080 | 100.2 | 63.9 | 30% | 103 | 29.99 | 0.0 | ||||||
| 31 | 14:30 | S 7 | 10.00 | Partly Cloudy | SCT070 | 99.9 | 62.2 | 29% | 102 | 30 | 0.0 | ||||||
| 31 | 14:10 | SE 7 | 10.00 | Partly Cloudy | SCT070 | 100 | 64.2 | 31% | 103 | 30.01 | 0.0 | ||||||
| 31 | 13:50 | E 6 | 10.00 | Partly Cloudy | SCT070 | 99 | 65.3 | 33% | 102 | 30.01 | 0.0 | ||||||
| 31 | 13:30 | W 5 | 10.00 | Mostly Cloudy | SCT070 BKN090 | 95.4 | 66 | 38% | 99 | 30.02 | 0.0 | ||||||
| 31 | 13:10 | NE 3 | 10.00 | Partly Cloudy | SCT080 SCT090 | 96.1 | 66.2 | 38% | 100 | 30.03 | 0.0 | ||||||
| 31 | 12:50 | E 3 | 10.00 | Fair | CLR | 93.7 | 66.4 | 96.6 | 74.5 | 41% | 97 | 30.03 | 0.0 | ||||
| 31 | 12:30 | Calm | 10.00 | Fair | CLR | 95.5 | 66.9 | 39% | 100 | 30.05 | 0.0 | ||||||
| 31 | 12:10 | W 6 | 10.00 | Fair | CLR | 93.9 | 66.6 | 41% | 97 | 30.06 | 0.0 | ||||||
| 31 | 11:50 | S 6 | 10.00 | Fair | CLR | 93.7 | 66.6 | 41% | 97 | 30.06 | 0.0 | ||||||
| 31 | 11:30 | Calm | 10.00 | Fair | CLR | 92.8 | 67.6 | 44% | 97 | 30.07 | 0.0 | ||||||
| 31 | 11:10 | S 6 | 10.00 | Partly Cloudy | SCT085 | 91.8 | 67.3 | 45% | 95 | 30.07 | 0.0 | ||||||
| 31 | 10:50 | S 3 | 10.00 | Partly Cloudy | SCT085 SCT110 | 89.8 | 67.8 | 48% | 94 | 30.07 | 0.0 | ||||||
| 31 | 10:30 | SE 3 | 0.75 | Overcast with Haze | BKN085 OVC100 | 89.2 | 69.4 | 52% | 94 | 30.07 | 0.0 | ||||||
| 31 | 10:10 | SW 6 | 10.00 | Mostly Cloudy | BKN085 BKN100 | 88.5 | 67.8 | 50% | 92 | 30.07 | 0.0 | ||||||
| 31 | 09:50 | S 6 | 10.00 | Mostly Cloudy | BKN085 | 87.8 | 70 | 56% | 93 | 30.06 | 0.0 | ||||||
| 31 | 09:30 | Calm | 10.00 | Mostly Cloudy | BKN085 | 84.4 | 70 | 62% | 89 | 30.06 | 0.0 | ||||||
| 31 | 09:10 | SE 6 | 10.00 | Mostly Cloudy | BKN095 | 83.3 | 69.4 | 63% | 87 | 30.06 | 0.0 | ||||||
| 31 | 08:50 | SE 7 | 10.00 | Mostly Cloudy | BKN095 | 82 | 69.1 | 65% | 85 | 30.06 | 0.0 | ||||||
| 31 | 08:30 | SE 7 | 10.00 | Fair | CLR | 80.6 | 68.5 | 67% | 83 | 30.05 | 0.0 | ||||||
| 31 | 08:10 | SE 3 | 10.00 | Fair | CLR | 79.3 | 68.5 | 70% | 82 | 30.05 | 0.0 | ||||||
| 31 | 07:50 | E 3 | 10.00 | Fair | CLR | 77 | 68.4 | 75% | 79 | 30.04 | 0.0 | ||||||
| 31 | 07:30 | E 5 | 10.00 | Fair | CLR | 75.2 | 67.5 | 77% | 76 | 30.03 | 0.0 | ||||||
| 31 | 07:10 | S 3 | 10.00 | Partly Cloudy | SCT095 | 75.4 | 67.1 | 76% | 77 | 30.02 | 0.0 | ||||||
| 31 | 06:50 | SE 5 | 10.00 | Partly Cloudy | SCT095 | 75.2 | 66.9 | 81.7 | 74.8 | 76% | 76 | 30.01 | 0.0 | ||||
| 31 | 06:30 | SE 3 | 10.00 | Fair | CLR | 76.6 | 66.9 | 72% | 78 | 30.01 | 0.0 | ||||||
| 31 | 06:10 | SE 5 | 10.00 | Fair | CLR | 76.1 | 66.9 | 73% | 78 | 30.01 | 0.0 | ||||||
| 31 | 05:50 | Calm | 10.00 | Fair | CLR | 78.4 | 66.9 | 68% | 81 | 30 | 0.0 | ||||||
| 31 | 05:30 | Calm | 10.00 | Fair | CLR | 78.8 | 67.3 | 68% | 81 | 30 | 0.0 | ||||||
| 31 | 05:10 | S 5 | 10.00 | Fair | CLR | 79.3 | 67.1 | 66% | 82 | 30 | 0.0 | ||||||
| 31 | 04:50 | SW 5 | 10.00 | Partly Cloudy | SCT070 SCT095 | 80.4 | 66.9 | 64% | 83 | 29.99 | 0.0 | ||||||
| 31 | 04:30 | SE 3 | 10.00 | Overcast | SCT070 OVC095 | 79.2 | 66.9 | 66% | 81 | 29.99 | 0.0 | ||||||
| 31 | 04:10 | SE 5 | 10.00 | Mostly Cloudy | BKN095 | 80.6 | 66.6 | 62% | 83 | 29.99 | 0.0 | ||||||
| 31 | 03:50 | SE 3 | 10.00 | Overcast | OVC095 | 80.1 | 66.7 | 64% | 82 | 29.99 | 0.0 | ||||||
| 31 | 03:30 | SE 5 | 10.00 | Mostly Cloudy | BKN095 | 79.7 | 66.7 | 65% | 82 | 29.99 | 0.0 | ||||||
| 31 | 03:10 | SE 6 | 10.00 | Partly Cloudy | SCT095 | 79.3 | 66.7 | 65% | 82 | 29.99 | 0.0 | ||||||
| 31 | 02:50 | SE 5 | 10.00 | Mostly Cloudy | BKN095 | 80.1 | 66.7 | 64% | 82 | 29.98 | 0.0 | ||||||
| 31 | 02:30 | SE 7 | 10.00 | Partly Cloudy | SCT095 | 80.8 | 66.6 | 62% | 83 | 29.98 | 0.0 | ||||||
| 31 | 02:10 | SE 7 | 10.00 | Partly Cloudy | SCT095 | 81 | 66.7 | 62% | 83 | 29.98 | 0.0 | ||||||
| 31 | 01:50 | SE 7 | 10.00 | Fair | CLR | 80.8 | 66.6 | 62% | 83 | 29.98 | 0.0 | ||||||
| 31 | 01:30 | SE 7 | 10.00 | Partly Cloudy | SCT095 | 79.9 | 66.7 | 64% | 82 | 29.99 | 0.0 | ||||||
| 31 | 01:10 | SE 6 | 10.00 | Mostly Cloudy | BKN095 | 79.9 | 66.4 | 64% | 82 | 29.99 | 0.0 | ||||||
| 31 | 00:50 | SE 7 | 10.00 | Partly Cloudy | SCT095 | 81.5 | 66.4 | 97.3 | 80.6 | 60% | 84 | 29.99 | 0.0 | ||||
| 31 | 00:30 | SE 8 | 10.00 | Fair | CLR | 81.1 | 66.2 | 61% | 83 | 29.99 | 0.0 | ||||||
| 31 | 00:10 | Calm | 10.00 | Partly Cloudy | SCT100 | 81 | 65.7 | 60% | 83 | 29.98 | 0.0 | ||||||
| 30 | 23:50 | Calm | 10.00 | Mostly Cloudy | BKN100 | 82.8 | 65.3 | 56% | 85 | 29.98 | 0.0 | ||||||
| 30 | 23:30 | Calm | 10.00 | Mostly Cloudy | BKN100 | 83.3 | 64.9 | 54% | 85 | 29.98 | 0.0 | ||||||
| 30 | 23:10 | Calm | 10.00 | Mostly Cloudy | BKN100 | 82.6 | 64.6 | 55% | 84 | 29.98 | 0.0 | ||||||
| 30 | 22:50 | SE 7 | 10.00 | Partly Cloudy | SCT100 | 84.2 | 64.6 | 52% | 86 | 29.97 | 0.0 | ||||||
| 30 | 22:30 | SE 8 | 10.00 | Partly Cloudy | SCT100 | 84.9 | 64.6 | 51% | 86 | 29.96 | 0.0 | ||||||
| 30 | 22:10 | SE 7 | 10.00 | Fair | CLR | 86.4 | 64.4 | 48% | 88 | 29.96 | 0.0 | ||||||
| 30 | 21:50 | Calm | 10.00 | Fair | CLR | 86 | 64.9 | 49% | 88 | 29.95 | 0.0 | ||||||
| 30 | 21:30 | SE 7 | 10.00 | Fair | CLR | 86.5 | 65.1 | 49% | 88 | 29.95 | 0.0 | ||||||
| 30 | 21:10 | SE 7 | 10.00 | Fair | CLR | 87.1 | 65.1 | 48% | 89 | 29.94 | 0.0 | ||||||
| 30 | 20:50 | E 6 | 10.00 | Fair | CLR | 87.6 | 65.3 | 48% | 90 | 29.93 | 0.0 | ||||||
| 30 | 20:30 | E 7 | 10.00 | Fair | CLR | 89.2 | 64.9 | 45% | 91 | 29.92 | 0.0 | ||||||
| 30 | 20:10 | E 7 | 10.00 | Fair | CLR | 90 | 64.6 | 43% | 92 | 29.92 | 0.0 | ||||||
| 30 | 19:50 | E 6 | 10.00 | Fair | CLR | 92.1 | 64.2 | 40% | 94 | 29.91 | 0.0 | ||||||
| 30 | 19:30 | E 6 | 10.00 | Fair | CLR | 93 | 64.2 | 39% | 95 | 29.91 | 0.0 | ||||||
| 30 | 19:10 | E 3 | 10.00 | Fair | CLR | 95.9 | 61.9 | 32% | 97 | 29.91 | 0.0 | ||||||
| 30 | 18:50 | E 3 | 10.00 | Fair | CLR | 97.3 | 63.1 | 102.2 | 96.1 | 32% | 99 | 29.92 | 0.0 | ||||
| 30 | 18:30 | SE 3 | 10.00 | Fair | CLR | 98.8 | 61.2 | 29% | 100 | 29.91 | 0.0 | ||||||
| 30 | 18:10 | E 5 | 7.00 | Fair with Haze | CLR | 99.5 | 60.8 | 28% | 100 | 29.92 | 0.0 | ||||||
| 30 | 17:50 | E 6 | 10.00 | Fair | CLR | 100 | 61.3 | 28% | 101 | 29.91 | 0.0 | ||||||
| 30 | 17:30 | SE 6 | 10.00 | Fair | CLR | 100.4 | 61.7 | 28% | 102 | 29.92 | 0.0 | ||||||
| 30 | 17:10 | E 8 | 10.00 | Mostly Cloudy | BKN090 BKN110 | 100.2 | 62.4 | 29% | 102 | 29.92 | 0.0 | ||||||
| 30 | 16:50 | SE 7 | 10.00 | Mostly Cloudy | BKN100 BKN120 | 101.3 | 61.5 | 27% | 103 | 29.92 | 0.0 | ||||||
| 30 | 16:30 | Calm | 10.00 | Fair | CLR | 98.6 | 60.6 | 29% | 99 | 29.92 | 0.0 | ||||||
| 30 | 16:10 | E 7 | 10.00 | Fair | CLR | 98.4 | 61.9 | 30% | 100 | 29.93 | 0.0 | ||||||
| 30 | 15:50 | SE 6 | 10.00 | Partly Cloudy | SCT080 SCT110 | 100.2 | 62.4 | 29% | 102 | 29.94 | 0.0 | ||||||
| 30 | 15:30 | S 7 | 10.00 | Mostly Cloudy | BKN080 BKN100 | 100.8 | 61.9 | 28% | 102 | 29.95 | 0.0 | ||||||
| 30 | 15:10 | Calm | 10.00 | Partly Cloudy | SCT080 | 100.4 | 62.4 | 29% | 102 | 29.95 | 0.0 | ||||||
| 30 | 14:50 | W 5 | 10.00 | Fair | CLR | 99.1 | 62.8 | 30% | 101 | 29.97 | 0.0 | ||||||
| 30 | 14:30 | N 8 | 10.00 | Fair | CLR | 100.8 | 62.2 | 28% | 103 | 29.97 | 0.0 | ||||||
| 30 | 14:10 | N 5 | 10.00 | Partly Cloudy | SCT075 | 98.2 | 63.9 | 32% | 101 | 29.98 | 0.0 | ||||||
| 30 | 13:50 | W 8 | 10.00 | Fair | CLR | 99 | 64.8 | 33% | 102 | 29.99 | 0.0 | ||||||
| 30 | 13:30 | SW 13 | 10.00 | Fair | CLR | 98.8 | 66.7 | 35% | 103 | 30 | 0.0 | ||||||
| 30 | 13:10 | W 7 | 10.00 | Fair | CLR | 97.2 | 66.9 | 37% | 101 | 30 | 0.0 | ||||||
| 30 | 12:50 | S 8 | 10.00 | Fair | CLR | 96.8 | 68 | 97.3 | 71.2 | 39% | 102 | 30.01 | 0.0 | ||||
| 30 | 12:30 | SW 6 | 10.00 | Fair | CLR | 96.3 | 69.1 | 41% | 102 | 30.02 | 0.0 | ||||||
| 30 | 12:10 | SW 6 | 10.00 | Fair | CLR | 95 | 69.4 | 43% | 101 | 30.03 | 0.0 | ||||||
| 30 | 11:50 | W 7 | 10.00 | Fair | CLR | 94.5 | 69.8 | 45% | 101 | 30.04 | 0.0 | ||||||
| 30 | 11:30 | SW 3 | 3.50 | Fair with Haze | CLR | 92.8 | 70.2 | 48% | 99 | 30.04 | 0.0 | ||||||
| 30 | 11:10 | W 8 | 10.00 | Fair | CLR | 91.9 | 70.5 | 50% | 98 | 30.04 | 0.0 | ||||||
| 30 | 10:50 | S 7 | 10.00 | Fair | CLR | 90.7 | 70.7 | 52% | 97 | 30.05 | 0.0 | ||||||
| 30 | 10:30 | SW 9 | 10.00 | Fair | CLR | 90 | 70.5 | 53% | 96 | 30.05 | 0.0 | ||||||
| 30 | 10:10 | W 9 | 10.00 | Fair | CLR | 87.8 | 70.3 | 56% | 93 | 30.05 | 0.0 | ||||||
| 30 | 09:50 | W 8 | 10.00 | Fair | CLR | 86.4 | 70 | 58% | 91 | 30.05 | 0.0 | ||||||
| 30 | 09:30 | SW 7 | 10.00 | Fair | CLR | 85.8 | 70.2 | 60% | 91 | 30.05 | 0.0 | ||||||
| 30 | 09:10 | W 6 | 10.00 | Fair | CLR | 84.2 | 70.2 | 63% | 89 | 30.05 | 0.0 | ||||||
| 30 | 08:50 | S 3 | 10.00 | Fair | CLR | 82 | 70 | 67% | 86 | 30.05 | 0.0 | ||||||
| 30 | 08:30 | S 5 | 10.00 | Fair | CLR | 79.5 | 68.5 | 69% | 82 | 30.05 | 0.0 | ||||||
| 30 | 08:10 | S 3 | 10.00 | Fair | CLR | 76.5 | 67.6 | 74% | 78 | 30.04 | 0.0 | ||||||
| 30 | 07:50 | SE 5 | 10.00 | Fair | CLR | 75 | 67.3 | 77% | 76 | 30.04 | 0.0 | ||||||
| 30 | 07:30 | SE 6 | 10.00 | Fair | CLR | 72.5 | 66.9 | 83% | 30.04 | 0.0 | |||||||
| 30 | 07:10 | SE 6 | 10.00 | Fair | CLR | 71.6 | 65.7 | 82% | 30.03 | 0.0 | |||||||
| 30 | 06:50 | SE 3 | 10.00 | Fair | CLR | 71.8 | 65.3 | 77.2 | 71.6 | 80% | 30.02 | 0.0 | |||||
| 30 | 06:30 | Calm | 10.00 | Fair | CLR | 71.8 | 65.3 | 80% | 30.01 | 0.0 | |||||||
| 30 | 06:10 | Calm | 10.00 | Partly Cloudy | SCT095 | 71.8 | 64.8 | 79% | 30.01 | 0.0 | |||||||
| 30 | 05:50 | Calm | 10.00 | Partly Cloudy | SCT095 | 72.3 | 64.8 | 77% | 30 | 0.0 | |||||||
| 30 | 05:30 | S 5 | 10.00 | Fair | CLR | 72.1 | 64.4 | 77% | 30 | 0.0 | |||||||
| 30 | 05:10 | SE 5 | 10.00 | Fair | CLR | 72.1 | 64 | 76% | 29.99 | 0.0 | |||||||
| 30 | 04:50 | SE 6 | 10.00 | Fair | CLR | 72.9 | 63.9 | 74% | 29.99 | 0.0 | |||||||
| 30 | 04:30 | Calm | 10.00 | Fair | CLR | 72.3 | 63.9 | 75% | 29.99 | 0.0 | |||||||
| 30 | 04:10 | SE 3 | 10.00 | Fair | CLR | 72.7 | 63.3 | 73% | 29.99 | 0.0 | |||||||
| 30 | 03:50 | Calm | 10.00 | Fair | CLR | 74.3 | 63.7 | 70% | 29.99 | 0.0 | |||||||
| 30 | 03:30 | Calm | 10.00 | Fair | CLR | 74.1 | 63.3 | 69% | 30 | 0.0 | |||||||
| 30 | 03:10 | Calm | 10.00 | Fair | CLR | 73 | 63.3 | 72% | 30 | 0.0 | |||||||
| 30 | 02:50 | SE 3 | 10.00 | Fair | CLR | 74.3 | 63.1 | 68% | 30 | 0.0 | |||||||
| 30 | 02:30 | SE 3 | 10.00 | Fair | CLR | 74.7 | 63.5 | 68% | 30.01 | 0.0 | |||||||
| 30 | 02:10 | SE 3 | 10.00 | Fair | CLR | 74.5 | 63.3 | 68% | 30.01 | 0.0 | |||||||
| 30 | 01:50 | E 5 | 10.00 | Fair | CLR | 75.7 | 63.1 | 65% | 78 | 30.01 | 0.0 | ||||||
| 30 | 01:30 | SE 5 | 10.00 | Fair | CLR | 75 | 63.1 | 67% | 77 | 30.01 | 0.0 | ||||||
| 30 | 01:10 | SE 5 | 10.00 | Fair | CLR | 75.7 | 63 | 65% | 78 | 30.01 | 0.0 | ||||||
| 30 | 00:50 | SE 3 | 10.00 | Fair | CLR | 77 | 62.8 | 95.4 | 77 | 62% | 79 | 30.01 | 0.0 | ||||
| 30 | 00:30 | Calm | 10.00 | Fair | CLR | 77.2 | 62.4 | 60% | 79 | 30 | 0.0 | ||||||
| 30 | 00:10 | SE 3 | 10.00 | Fair | CLR | 77.7 | 62.4 | 59% | 79 | 30 | 0.0 | ||||||
| 29 | 23:50 | SE 6 | 10.00 | Fair | CLR | 79.5 | 62.4 | 56% | 81 | 30 | 0.0 | ||||||
| 29 | 23:30 | SE 8 | 10.00 | Fair | CLR | 81.9 | 62.4 | 52% | 83 | 30 | 0.0 | ||||||
| 29 | 23:10 | SE 8 | 10.00 | Fair | CLR | 82.8 | 62.2 | 50% | 84 | 30 | 0.0 | ||||||
| 29 | 22:50 | SE 8 | 10.00 | Fair | CLR | 82.2 | 62.1 | 51% | 83 | 30 | 0.0 | ||||||
| 29 | 22:30 | E 6 | 10.00 | Fair | CLR | 82.9 | 62.2 | 50% | 84 | 30 | 0.0 | ||||||
| 29 | 22:10 | E 6 | 10.00 | Fair | CLR | 83.5 | 62.4 | 49% | 84 | 29.99 | 0.0 | ||||||
| 29 | 21:50 | E 8 | 10.00 | Fair | CLR | 83.7 | 62.6 | 49% | 85 | 29.99 | 0.0 | ||||||
| 29 | 21:30 | E 6 | 10.00 | Fair | CLR | 85.3 | 61.7 | 45% | 86 | 29.98 | 0.0 | ||||||
| 29 | 21:10 | E 7 | 10.00 | Fair | CLR | 85.5 | 60.4 | 43% | 85 | 29.98 | 0.0 | ||||||
| 29 | 20:50 | E 7 | 10.00 | Fair | CLR | 86.5 | 59.5 | 40% | 86 | 29.97 | 0.0 | ||||||
| 29 | 20:30 | E 7 | 10.00 | Fair | CLR | 87.6 | 59 | 38% | 87 | 29.97 | 0.0 | ||||||
| 29 | 20:10 | E 8 | 10.00 | Fair | CLR | 88.9 | 59 | 37% | 88 | 29.96 | 0.0 | ||||||
| 29 | 19:50 | E 7 | 10.00 | Fair | CLR | 89.6 | 59.4 | 36% | 89 | 29.96 | 0.0 | ||||||
| 29 | 19:30 | E 8 | 10.00 | Fair | CLR | 91.8 | 59.5 | 34% | 91 | 29.96 | 0.0 | ||||||
| 29 | 19:10 | E 9 | 10.00 | Fair | CLR | 94.1 | 59.9 | 32% | 94 | 29.96 | 0.0 | ||||||
| 29 | 18:50 | E 8 | 10.00 | Fair | CLR | 95.7 | 60.4 | 101.5 | 95.5 | 31% | 96 | 29.96 | 0.0 | ||||
| 29 | 18:30 | E 9 | 10.00 | Fair | CLR | 97 | 60.3 | 30% | 97 | 29.96 | 0.0 | ||||||
| 29 | 18:10 | E 9 | 10.00 | Fair | CLR | 98.2 | 58.1 | 26% | 98 | 29.95 | 0.0 | ||||||
| 29 | 17:50 | E 7 | 10.00 | Fair | CLR | 99.1 | 57.2 | 25% | 98 | 29.96 | 0.0 | ||||||
| 29 | 17:30 | E 3 | 10.00 | Fair | CLR | 99.5 | 56.8 | 24% | 99 | 29.96 | 0.0 | ||||||
| 29 | 17:10 | SE 6 | 10.00 | Fair | CLR | 100 | 57.7 | 25% | 99 | 29.96 | 0.0 | ||||||
| 29 | 16:50 | E 6 | 10.00 | Partly Cloudy | SCT090 | 98.1 | 59.2 | 28% | 98 | 29.96 | 0.0 | ||||||
| 29 | 16:30 | E 7 | 10.00 | Partly Cloudy | SCT090 | 100.2 | 61 | 27% | 101 | 29.97 | 0.0 | ||||||
| 29 | 16:10 | NE 6 | 10.00 | Partly Cloudy | SCT095 | 99.9 | 61.2 | 28% | 101 | 29.97 | 0.0 | ||||||
| 29 | 15:50 | Calm | 10.00 | Partly Cloudy | SCT095 | 99.9 | 60.3 | 27% | 100 | 29.98 | 0.0 | ||||||
| 29 | 15:30 | E 3 | 10.00 | Fair | CLR | 100.4 | 60.8 | 27% | 101 | 29.99 | 0.0 | ||||||
| 29 | 15:10 | S 6 | 10.00 | Partly Cloudy | SCT100 | 99.1 | 61 | 28% | 100 | 30 | 0.0 | ||||||
| 29 | 14:50 | Calm | 10.00 | Partly Cloudy | SCT090 | 99 | 60.3 | 28% | 99 | 30.01 | 0.0 | ||||||
| 29 | 14:30 | SE 5 | 10.00 | Partly Cloudy | SCT080 | 98.6 | 61.3 | 29% | 100 | 30.01 | 0.0 | ||||||
| 29 | 14:10 | SW 5 | 10.00 | Partly Cloudy | SCT080 | 99.7 | 62.1 | 29% | 101 | 30.02 | 0.0 | ||||||
| 29 | 13:50 | W 6 | 10.00 | Mostly Cloudy | BKN080 | 97.5 | 61 | 30% | 98 | 30.03 | 0.0 | ||||||
| 29 | 13:30 | SW 6 | 10.00 | Partly Cloudy | SCT070 | 97.3 | 63 | 32% | 99 | 30.04 | 0.0 | ||||||
| 29 | 13:10 | SW 9 | 10.00 | Partly Cloudy | SCT070 | 97.2 | 63.3 | 33% | 99 | 30.05 | 0.0 | ||||||
| Date | Time (cdt) | Wind (mph) | Vis. (mi.) | Weather | Sky Cond. | Air | Dwpt | Max. | Min. | Relative Humidity | Wind Chill (°F) | Heat Index (°F) | altimeter (in) | sea level (mb) | 1 hr | 3 hr | 6 hr |
| 6 hour | |||||||||||||||||
| Temperature (ºF) | Pressure | Precipitation (in) | |||||||||||||||